CREW DRAGON DEMO-2 (45623 NORAD) Tracking and Keplerian Element Data

This shows tracking and keplerian element data for the satellite.

Feedback or suggestion? Click here.




ElementValue
Catalog45623
NameCREW DRAGON DEMO-2
Epoch Orbit23439
Epoch Day184.515883
Epoch Year2020
RAAN272.5904
Inclination51.6449
Eccentricity0.0002533
Argument of Perigee106.3683
Mean Anonmoly346.9884
Mean Motion15.49475761
Decay Rate5.01E-06
L11 45623U 20033A 20184.51588300 .00000501 00000-0 17015-4 0 9997
L22 45623 51.6449 272.5904 0002533 106.3683 346.9884 15.49475761234392

Live tracking and technical data element details for CREW DRAGON DEMO-2 (NORAD 45623). CREW DRAGON DEMO-2 can be tracked NOW for your location showing map with azimuth and elevation plus other details from your city location.

Track the satellite on the map from your city or location and see movement details for azimuth, elevation, latitude, longitude, range, height, and movement on the map or in text.







IsCatalogInMostPopularTable: catalog: 45623, numindb: 530
Update: records affected: 1



GetName: 45623 CREW DRAGON DEMO-2

Hit Count: updated at: Sat, 04 Jul 2020 01:38:54 GMT